| time (UTC) | temp C | wind direction | speed KPH | gust KPH | rain 1hr cm | rain 24hr cm | rain mn cm | humidity % | barometer mb |
| 20260502223317 | 6 | 222 | 4.8 | 0.0 | 0.00 | 0.00 | 0.03 | 75 | 1011.4 |
| 20260502220358 | 5 | 175 | 4.8 | 0.0 | 0.00 | 0.00 | 0.03 | 78 | 1011.6 |
| 20260502213325 | 5 | 142 | 3.2 | 0.0 | 0.00 | 0.00 | 0.03 | 77 | 1011.7 |
| 20260502210321 | 5 | 210 | 3.2 | 0.0 | 0.00 | 0.00 | 0.03 | 82 | 1011.8 |
| 20260502203318 | 5 | 217 | 6.4 | 0.0 | 0.00 | 0.00 | 0.03 | 83 | 1012.1 |
| 20260502200339 | 5 | 234 | 1.6 | 0.0 | 0.00 | 0.00 | 0.00 | 82 | 1011.9 |
| 20260502193329 | 6 | 200 | 6.4 | 0.0 | 0.00 | 0.00 | 0.00 | 77 | 1012.1 |
| 20260502190327 | 6 | 23 | 0.0 | 0.0 | 0.00 | 0.00 | 0.00 | 78 | 1012.2 |
| 20260502183343 | 6 | 22 | 3.2 | 0.0 | 0.00 | 0.00 | 0.00 | 73 | 1012.1 |
| 20260502180340 | 7 | 25 | 3.2 | 0.0 | 0.00 | 0.00 | 0.00 | 70 | 1011.9 |
| 20260502170325 | 7 | 79 | 4.8 | 0.0 | 0.00 | 0.00 | 0.00 | 69 | 1012.5 |
| 20260502163318 | 7 | 344 | 3.2 | 0.0 | 0.00 | 0.00 | 0.00 | 64 | 1012.6 |
| 20260502160341 | 6 | 5 | 3.2 | 0.0 | 0.00 | 0.00 | 0.00 | 71 | 1013.0 |
| 20260502150320 | 7 | 53 | 4.8 | 0.0 | 0.00 | 0.00 | 0.00 | 62 | 1013.0 |
| 20260502130331 | 5 | 18 | 4.8 | 0.0 | 0.00 | 0.00 | 0.00 | 68 | 1012.9 |
| 20260502123327 | 4 | 360 | 4.8 | 0.0 | 0.00 | 0.00 | 0.00 | 73 | 1012.7 |
| 20260502120329 | 3 | 333 | 4.8 | 0.0 | 0.00 | 0.00 | 0.00 | 74 | 1013.0 |
| 20260502113319 | 3 | 32 | 4.8 | 0.0 | 0.00 | 0.00 | 0.00 | 76 | 1012.4 |
| 20260502110317 | 2 | 34 | 6.4 | 0.0 | 0.00 | 0.00 | 0.00 | 76 | 1011.9 |
| 20260502103332 | 2 | 355 | 6.4 | 0.0 | 0.00 | 0.00 | 0.00 | 80 | 1011.9 |
| 20260502100331 | 1 | 360 | 6.4 | 0.0 | 0.00 | 0.00 | 0.00 | 85 | 1011.2 |
| 20260502090329 | 0 | 9 | 8.0 | 0.0 | 0.00 | 0.00 | 0.00 | 86 | 1010.4 |
| 20260502070354 | 1 | 14 | 6.4 | 0.0 | 0.00 | 0.00 | 0.00 | 84 | 1009.6 |
| 20260502063345 | 1 | 307 | 6.4 | 0.0 | 0.00 | 0.00 | 0.00 | 84 | 1009.6 |
| 20260502060342 | 1 | 26 | 6.4 | 0.0 | 0.00 | 0.00 | 0.00 | 83 | 1009.6 |
| 20260502053332 | 1 | 325 | 6.4 | 0.0 | 0.00 | 0.00 | 0.00 | 83 | 1009.4 |
| 20260502050326 | 1 | 333 | 6.4 | 0.0 | 0.00 | 0.00 | 0.00 | 83 | 1009.3 |
| 20260502043343 | 1 | 360 | 6.4 | 0.0 | 0.00 | 0.00 | 0.00 | 83 | 1009.2 |
| 20260502040343 | 2 | 315 | 8.0 | 0.0 | 0.00 | 0.00 | 0.13 | 84 | 1009.0 |
| 20260502033329 | 2 | 330 | 6.4 | 0.0 | 0.00 | 0.00 | 0.13 | 84 | 1009.9 |
| 20260502030324 | 2 | 329 | 8.0 | 0.0 | 0.00 | 0.00 | 0.13 | 84 | 1009.8 |
| 20260502023347 | 2 | 308 | 8.0 | 0.0 | 0.00 | 0.00 | 0.13 | 83 | 1009.9 |
| 20260502020343 | 3 | 30 | 11.3 | 0.0 | 0.00 | 0.00 | 0.13 | 81 | 1009.6 |
| 20260502013330 | 4 | 15 | 11.3 | 0.0 | 0.00 | 0.00 | 0.13 | 80 | 1009.6 |
| 20260502010325 | 5 | 341 | 9.7 | 0.0 | 0.00 | 0.00 | 0.13 | 82 | 1009.2 |
| 20260502003321 | 5 | 50 | 8.0 | 0.0 | 0.00 | 0.00 | 0.13 | 84 | 1008.5 |
| 20260502000342 | 6 | 346 | 8.0 | 0.0 | 0.00 | 0.00 | 0.13 | 84 | 1007.9 |
| 20260501233329 | 6 | 48 | 8.0 | 0.0 | 0.00 | 0.00 | 0.13 | 84 | 1007.3 |
| 20260501230323 | 6 | 86 | 11.3 | 0.0 | 0.00 | 0.00 | 0.13 | 83 | 1007.0 |